CW6532 Weather Reports


Display with metric or nautical units.
time (UTC)temp
F
wind
direction
speed
MPH
gust
MPH
rain 1hr
in
rain 24hr
in
rain mn
in
humidity
%
barometer
mb
20260507123324 60 106 3.0 4.0 0.00 0.00 0.00 32 1023.6
20260507122331 60 109 4.0 6.0 0.00 0.00 0.00 32 1023.6
20260507121321 60 109 4.0 6.0 0.00 0.00 0.00 33 1023.5
20260507120354 59 109 4.0 6.0 0.00 0.00 0.00 34 1023.5
20260507115324 60 109 3.0 6.0 0.00 0.00 0.00 34 1023.5
20260507114333 61 78 1.0 5.0 0.00 0.00 0.00 31 1023.5
20260507113331 62 96 3.0 6.0 0.00 0.00 0.00 29 1023.4
20260507112328 62 150 4.0 7.0 0.00 0.00 0.00 29 1023.4
20260507111357 61 196 4.0 5.0 0.00 0.00 0.00 30 1023.3
20260507110328 61 171 4.0 9.0 0.00 0.00 0.00 30 1023.2
20260507105335 62 201 6.0 9.0 0.00 0.00 0.00 30 1023.2
20260507104343 62 193 5.0 8.0 0.00 0.00 0.00 29 1023.3
20260507103336 61 196 7.0 9.0 0.00 0.00 0.00 31 1023.2
20260507102325 62 173 4.0 7.0 0.00 0.00 0.00 30 1023.3
20260507101334 60 155 4.0 7.0 0.00 0.00 0.00 32 1023.4
20260507100325 61 125 4.0 6.0 0.00 0.00 0.00 30 1023.4
20260507095334 61 96 3.0 4.0 0.00 0.00 0.00 31 1023.4
20260507094343 61 198 3.0 4.0 0.00 0.00 0.00 30 1023.5
20260507093336 62 232 0.0 2.0 0.00 0.00 0.00 28 1023.5
20260507092323 62 232 2.0 4.0 0.00 0.00 0.00 28 1023.5
20260507091351 62 232 3.0 4.0 0.00 0.00 0.00 29 1023.6
20260507090320 63 192 1.0 3.0 0.00 0.00 0.00 28 1023.7
20260507085328 64 192 3.0 5.0 0.00 0.00 0.00 26 1023.7
20260507084321 64 203 4.0 9.0 0.00 0.00 0.00 26 1023.9
20260507083334 63 202 6.0 8.0 0.00 0.00 0.00 27 1023.9
20260507082324 63 213 4.0 9.0 0.00 0.00 0.00 28 1024.1
20260507081334 63 229 5.0 12.0 0.00 0.00 0.00 28 1024.0
20260507080327 63 223 7.0 11.0 0.00 0.00 0.00 28 1023.9
20260507075343 64 196 5.0 9.0 0.00 0.00 0.00 27 1024.0
20260507074330 64 202 6.0 10.0 0.00 0.00 0.00 26 1023.9
20260507073325 65 233 2.0 4.0 0.00 0.00 0.00 26 1023.9
20260507072333 65 233 2.0 5.0 0.00 0.00 0.00 26 1023.9
20260507071337 65 247 2.0 4.0 0.00 0.00 0.00 25 1023.9
20260507070343 65 211 1.0 7.0 0.00 0.00 0.00 26 1023.8
20260507065325 66 209 6.0 7.0 0.00 0.00 0.00 25 1023.8
20260507064336 65 234 1.0 3.0 0.00 0.00 0.00 26 1023.8
20260507063355 65 234 2.0 6.0 0.00 0.00 0.00 26 1023.8
20260507062338 66 207 1.0 6.0 0.00 0.00 0.00 25 1023.7
20260507061325 65 213 4.0 8.0 0.00 0.00 0.00 26 1023.7
20260507060351 65 214 3.0 6.0 0.00 0.00 0.00 29 1023.8
20260507055334 65 231 3.0 5.0 0.00 0.00 0.00 28 1023.8
20260507054337 67 207 5.0 7.0 0.00 0.00 0.00 26 1023.7
20260507053325 69 99 4.0 7.0 0.00 0.00 0.00 22 1023.6
20260507052337 68 63 4.0 6.0 0.00 0.00 0.00 23 1023.6
20260507051325 66 313 1.0 3.0 0.00 0.00 0.00 24 1023.6
20260507050335 66 18 2.0 4.0 0.00 0.00 0.00 24 1023.5
20260507045324 67 328 3.0 3.0 0.00 0.00 0.00 23 1023.4
20260507044333 67 328 2.0 3.0 0.00 0.00 0.00 23 1023.5
20260507043326 68 328 1.0 4.0 0.00 0.00 0.00 22 1023.4
20260507042335 68 328 4.0 5.0 0.00 0.00 0.00 22 1023.4
20260507041328 69 328 3.0 5.0 0.00 0.00 0.00 21 1023.4
20260507040322 69 319 2.0 4.0 0.00 0.00 0.00 21 1023.4
20260507035335 69 69 2.0 4.0 0.00 0.00 0.00 21 1023.3
20260507034327 69 69 1.0 6.0 0.00 0.00 0.00 22 1023.2
20260507033322 69 101 2.0 6.0 0.00 0.00 0.00 21 1023.1
20260507032333 69 93 2.0 6.0 0.00 0.00 0.00 22 1023.0
20260507031327 69 309 1.0 3.0 0.00 0.00 0.00 22 1022.9
20260507030322 70 304 3.0 6.0 0.00 0.00 0.00 22 1022.7
20260507025332 70 309 3.0 5.0 0.00 0.00 0.00 22 1022.6
20260507024325 71 311 4.0 8.0 0.00 0.00 0.00 22 1022.6
20260507023322 71 310 4.0 9.0 0.00 0.00 0.00 22 1022.4
20260507022333 72 304 5.0 8.0 0.00 0.00 0.00 21 1022.4
20260507021330 72 307 4.0 8.0 0.00 0.00 0.00 22 1022.2
20260507020323 73 290 5.0 8.0 0.00 0.00 0.00 21 1022.3
20260507015332 74 313 6.0 9.0 0.00 0.00 0.00 21 1022.3
20260507014336 75 305 3.0 9.0 0.00 0.00 0.00 20 1022.3
20260507013325 75 355 6.0 10.0 0.00 0.00 0.00 20 1022.2
20260507012330 76 317 5.0 12.0 0.00 0.00 0.00 20 1022.3
20260507011338 76 5 7.0 12.0 0.00 0.00 0.00 19 1022.2
20260507010328 76 313 6.0 12.0 0.00 0.00 0.00 19 1022.3
20260507005335 77 304 4.0 6.0 0.00 0.00 0.00 18 1022.2
20260507004321 76 26 5.0 14.0 0.00 0.00 0.00 19 1022.2
20260507003329 77 321 9.0 17.0 0.00 0.00 0.00 19 1022.0
20260507002338 78 327 5.0 10.0 0.00 0.00 0.00 18 1022.0
20260507001346 77 324 5.0 12.0 0.00 0.00 0.00 18 1022.1
20260507000336 78 306 9.0 13.0 0.00 0.00 0.00 19 1021.9
20260506235324 78 270 9.0 14.0 0.00 0.00 0.00 18 1022.0
20260506234333 78 306 6.0 12.0 0.00 0.00 0.00 19 1021.9
20260506233324 77 316 5.0 11.0 0.00 0.00 0.00 19 1021.9
20260506232338 78 337 6.0 11.0 0.00 0.00 0.00 20 1022.0
20260506231323 76 346 7.0 16.0 0.00 0.00 0.00 21 1022.0
20260506230330 77 279 8.0 12.0 0.00 0.00 0.00 20 1022.2
20260506225334 77 246 6.0 14.0 0.00 0.00 0.00 21 1022.3
20260506224340 78 248 6.0 11.0 0.00 0.00 0.00 20 1022.2
20260506223331 77 260 3.0 11.0 0.00 0.00 0.00 20 1022.6
20260506222322 78 314 2.0 11.0 0.00 0.00 0.00 18 1022.5
20260506221331 78 44 5.0 11.0 0.00 0.00 0.00 18 1022.5
20260506220336 77 257 8.0 14.0 0.00 0.00 0.00 20 1022.7
20260506215324 77 325 4.0 11.0 0.00 0.00 0.00 20 1022.7
20260506214353 75 259 7.0 14.0 0.00 0.00 0.00 22 1022.8
20260506213320 76 236 5.0 11.0 0.00 0.00 0.00 22 1022.9
20260506212325 75 235 5.0 11.0 0.00 0.00 0.00 21 1023.2
20260506211337 75 331 3.0 10.0 0.00 0.00 0.00 22 1023.2
20260506210330 75 321 7.0 12.0 0.00 0.00 0.00 21 1023.3
20260506205334 76 335 4.0 11.0 0.00 0.00 0.00 21 1023.3
20260506204338 74 267 4.0 8.0 0.00 0.00 0.00 20 1023.5
20260506203335 74 231 8.0 12.0 0.00 0.00 0.00 20 1023.7
20260506202345 76 300 7.0 12.0 0.00 0.00 0.00 21 1023.8
20260506201330 74 257 2.0 13.0 0.00 0.00 0.00 22 1023.9
20260506200337 74 327 7.0 15.0 0.00 0.00 0.00 22 1023.9
20260506195321 74 260 7.0 13.0 0.00 0.00 0.00 22 1024.1
20260506194345 73 270 5.0 10.0 0.00 0.00 0.00 24 1024.1
20260506193334 73 229 4.0 14.0 0.00 0.00 0.00 23 1024.2
20260506192327 73 249 6.0 13.0 0.00 0.00 0.00 25 1024.4
20260506191335 73 194 2.0 9.0 0.00 0.00 0.00 25 1024.5
20260506190326 72 37 3.0 10.0 0.00 0.00 0.00 26 1024.6
20260506185334 72 269 6.0 14.0 0.00 0.00 0.00 26 1024.6
20260506184343 72 246 8.0 12.0 0.00 0.00 0.00 27 1024.8
20260506183336 71 21 6.0 13.0 0.00 0.00 0.00 28 1024.8
20260506182323 72 338 8.0 11.0 0.00 0.00 0.00 29 1024.9
20260506181348 72 67 2.0 10.0 0.00 0.00 0.00 28 1024.9
20260506180353 70 42 7.0 10.0 0.00 0.00 0.00 29 1025.1
20260506175337 70 230 3.0 6.0 0.00 0.00 0.00 31 1025.1
20260506174322 70 72 1.0 8.0 0.00 0.00 0.00 30 1025.1
20260506173338 68 73 3.0 9.0 0.00 0.00 0.00 31 1025.1
20260506172322 69 86 2.0 9.0 0.00 0.00 0.00 32 1025.0
20260506171328 68 5 6.0 10.0 0.00 0.00 0.00 33 1025.1
20260506170333 68 345 4.0 10.0 0.00 0.00 0.00 35 1025.1
20260506165320 66 255 5.0 9.0 0.00 0.00 0.00 36 1025.1
20260506164324 65 239 3.0 8.0 0.00 0.00 0.00 37 1025.1
20260506163338 66 85 5.0 10.0 0.00 0.00 0.00 37 1025.2
20260506162341 66 46 2.0 7.0 0.00 0.00 0.00 36 1024.9
20260506161324 67 38 2.0 6.0 0.00 0.00 0.00 36 1024.9
20260506160350 65 13 2.0 6.0 0.00 0.00 0.00 39 1024.9
20260506155343 65 327 4.0 8.0 0.00 0.00 0.00 39 1024.9
20260506154350 64 194 0.0 4.0 0.00 0.00 0.00 44 1024.8
20260506153323 62 259 5.0 8.0 0.00 0.00 0.00 46 1024.8
20260506152331 61 271 1.0 10.0 0.00 0.00 0.00 48 1024.7
20260506151337 61 248 2.0 7.0 0.00 0.00 0.00 48 1024.9
20260506150324 60 240 2.0 7.0 0.00 0.00 0.00 51 1024.9
20260506145329 60 238 3.0 5.0 0.00 0.00 0.00 51 1024.8
20260506144335 60 242 1.0 2.0 0.00 0.00 0.00 52 1024.8
20260506143326 59 242 0.0 2.0 0.00 0.00 0.00 55 1024.9
20260506142356 58 242 2.0 4.0 0.00 0.00 0.00 57 1025.0
20260506141320 57 199 3.0 5.0 0.00 0.00 0.00 60 1024.9
20260506140326 58 223 2.0 4.0 0.00 0.00 0.00 60 1024.8
20260506135330 58 180 0.0 1.0 0.00 0.00 0.00 56 1024.8
20260506134336 58 180 0.0 3.0 0.00 0.00 0.00 58 1024.7
20260506133325 57 181 1.0 2.0 0.00 0.00 0.00 57 1024.6
20260506132329 56 182 0.0 1.0 0.00 0.00 0.00 58 1024.6
20260506131333 56 182 0.0 0.0 0.00 0.00 0.00 60 1024.5
20260506130336 54 182 0.0 1.0 0.00 0.00 0.00 62 1024.4
20260506125319 54 181 0.0 2.0 0.00 0.02 0.00 63 1024.4
20260506124346 54 181 1.0 3.0 0.00 0.02 0.00 64 1024.4